Terug naar catalogus

STARLINK-31101

ActiefCommunicatieVLEO
NORAD 58737·PAYLOAD·🇺🇸 United States

Gelanceerd Jan 7, 2024 vanaf Cape Canaveral Space Force Station

Loading…

Volgende Passages (komende 24 uur)

TLE

VersSource: CelesTrak SupGP

Epoch: Sep 14, 2026, 22:04 UTC

1 58737C 24005K   26257.91993056  .00030835  00000+0  11177-2 0  2579
2 58737  43.0022 231.0189 0001228 267.8483 129.9075 15.27539114    10

Volg STARLINK-31101 in realtime met AllMySat

Download on the App Store